CW2647 Weather Reports


Display with metric or nautical units.
time (UTC)temp
F
wind
direction
speed
MPH
gust
MPH
rain 1hr
in
rain 24hr
in
rain mn
in
humidity
%
barometer
mb
20260504201519 78 360 0.0 8.0 0.00 0.00 0.00 36 1013.8
20260504200018 79 360 2.0 8.0 0.00 0.00 0.00 36 1014.1
20260504194516 79 360 0.0 4.0 0.00 0.00 0.00 36 1014.2
20260504193013 79 360 2.0 6.0 0.00 0.00 0.00 36 1014.6
20260504191510 79 72 2.0 6.0 0.00 0.00 0.00 37 1014.8
20260504190008 78 360 1.0 6.0 0.00 0.00 0.00 34 1015.0
20260504184505 78 360 0.0 5.0 0.00 0.00 0.00 36 1015.4
20260504183107 77 360 1.0 5.0 0.00 0.00 0.00 35 1015.4
20260504181502 78 360 1.0 5.0 0.00 0.00 0.00 35 1015.6
20260504180117 76 360 1.0 8.0 0.00 0.00 0.00 37 1015.8
20260504174558 76 360 1.0 5.0 0.00 0.00 0.00 39 1015.9
20260504173056 75 360 1.0 4.0 0.00 0.00 0.00 39 1016.1
20260504171553 76 360 2.0 6.0 0.00 0.00 0.00 40 1016.3
20260504081523 45 360 0.0 0.0 0.00 0.00 0.00 84 1016.9
20260504050106 49 360 0.0 0.0 0.00 0.00 0.00 80 1017.9
20260504044601 50 360 0.0 0.0 0.00 0.00 0.00 80 1017.8
20260504043055 50 360 0.0 0.0 0.00 0.00 0.00 79 1017.8
20260504041557 51 360 0.0 0.0 0.00 0.00 0.00 79 1017.7
20260504040051 51 360 0.0 0.0 0.00 0.00 0.00 78 1017.5
20260504034549 52 360 0.0 1.0 0.00 0.00 0.00 78 1017.6
20260504033049 52 360 0.0 0.0 0.00 0.00 0.00 77 1017.6
20260504031549 53 360 0.0 1.0 0.00 0.00 0.00 77 1017.4
20260504030046 53 360 0.0 1.0 0.00 0.00 0.00 74 1017.4
20260504024601 54 360 0.0 1.0 0.00 0.00 0.00 73 1017.5
20260504023048 55 360 0.0 0.0 0.00 0.00 0.00 71 1017.3
20260504021545 56 360 0.0 0.0 0.00 0.00 0.00 67 1017.2
20260504020045 56 360 0.0 0.0 0.00 0.00 0.00 66 1017.0
20260504014546 58 360 0.0 0.0 0.00 0.00 0.00 63 1016.7
20260504013044 59 360 0.0 0.0 0.00 0.00 0.00 60 1016.5
20260504011545 60 360 0.0 0.0 0.00 0.00 0.00 57 1016.4
20260504010042 62 360 0.0 0.0 0.00 0.00 0.00 54 1016.2
20260504004547 64 360 0.0 1.0 0.00 0.00 0.00 49 1016.1
20260504003048 65 28 0.0 0.0 0.00 0.00 0.00 48 1015.9
20260504001545 67 360 0.0 0.0 0.00 0.00 0.00 46 1015.8
20260504000108 67 360 0.0 1.0 0.00 0.00 0.00 46 1015.8
20260503234550 68 360 0.0 1.0 0.00 0.00 0.00 44 1015.8
20260503233041 70 360 0.0 3.0 0.00 0.00 0.00 37 1015.7
20260503231539 71 360 0.0 4.0 0.00 0.00 0.00 36 1015.8
20260503230038 72 360 1.0 3.0 0.00 0.00 0.00 33 1015.8
20260503224538 73 360 0.0 3.0 0.00 0.00 0.00 36 1015.8
20260503223040 73 360 2.0 5.0 0.00 0.00 0.00 32 1015.8
20260503221548 73 360 1.0 5.0 0.00 0.00 0.00 35 1015.8
20260503220038 73 360 2.0 4.0 0.00 0.00 0.00 34 1016.0
20260503214541 74 360 2.0 8.0 0.00 0.00 0.00 33 1016.0
20260503213036 74 360 1.0 8.0 0.00 0.00 0.00 32 1016.1
20260503211534 74 360 3.0 10.0 0.00 0.00 0.00 31 1016.3
20260503210034 74 360 2.0 5.0 0.00 0.00 0.00 30 1016.4
20260503204533 74 360 2.0 6.0 0.00 0.00 0.00 33 1016.6
20260503203041 74 360 1.0 8.0 0.00 0.00 0.00 34 1016.5